Imperial, CA

7:50 PM PST on February 12, 2016 (GMT -0800)
Imperial County

Weather History for KIPL - October, 2012

Change the Weather History Date:

Wednesday, October 3, 2012

  Actual Average Record
Temperature  
Mean Temperature 89 °F -  
Max Temperature 107 °F 94 °F 108 °F (1952)
Min Temperature 71 °F 66 °F 53 °F (1959)
Cooling Degree Days 24    
Growing Degree Days 39 (Base 50)    
Moisture  
Dew Point 42 °F    
Average Humidity 23    
Maximum Humidity 42    
Minimum Humidity 7    
Precipitation  
Precipitation 0.00 in - - ()
Sea Level Pressure  
Sea Level Pressure 29.81 in    
Wind  
Wind Speed 8 mph (WSW)    
Max Wind Speed 21 mph    
Max Gust Speed 29 mph    
Visibility 10 miles    
Events      
Averages and records for this station are not official NWS values.
T = Trace of Precipitation, MM = Missing Value Source: NWS Daily Summary

Daily Weather History Graph

Daily Weather History Graph

Search for Another Location

Airport or City:

Trip Planner

Search our weather history database for the weather conditions in past years. The results will help you decide how hot, cold, wet, or windy it might be!

Date:

Astronomy

Oct. 03, 2012 Rise Set
Actual Time 6:38 AM PDT 6:23 PM PDT
Civil Twilight 6:13 AM PDT 6:48 PM PDT
Nautical Twilight 5:45 AM PDT 7:16 PM PDT
Astronomical Twilight 5:16 AM PDT 7:45 PM PDT
Moon 8:32 PM PDT (10/3) 9:52 AM PDT (10/3)
Length of Visible Light 12h 34m
Length of Day
11h 45m
Waning Gibbous, 88% of the Moon is Illuminated
Oct 3
Waning Gibbous
Oct 8
Last Quarter
Oct 15
New
Oct 21
First Quarter
Oct 29
Full

Hourly Weather History & Observations

Time (PDT) Temp. Dew Point Humidity Pressure Visibility Wind Dir Wind Speed Gust Speed Precip Events Conditions
12:53 AM 79.0 °F 44.1 °F 29% 29.75 in 10.0 mi WSW 6.9 mph - N/A   Clear
1:53 AM 78.1 °F 44.1 °F 30% 29.75 in 10.0 mi West 8.1 mph - N/A   Clear
2:53 AM 77.0 °F 43.0 °F 30% 29.75 in 10.0 mi West 5.8 mph - N/A   Clear
3:53 AM 73.9 °F 45.0 °F 35% 29.76 in 10.0 mi WSW 6.9 mph - N/A   Clear
4:53 AM 75.0 °F 43.0 °F 32% 29.77 in 10.0 mi SSW 3.5 mph - N/A   Clear
5:53 AM 73.0 °F 46.0 °F 38% 29.78 in 10.0 mi SSW 4.6 mph - N/A   Clear
6:53 AM 71.1 °F 46.9 °F 42% 29.80 in 10.0 mi South 4.6 mph - N/A   Clear
7:53 AM 78.1 °F 52.0 °F 40% 29.82 in 10.0 mi Calm Calm - N/A   Clear
8:53 AM 86.0 °F 48.9 °F 28% 29.84 in 10.0 mi SW 3.5 mph - N/A   Clear
9:53 AM 93.9 °F 41.0 °F 16% 29.85 in 10.0 mi WSW 4.6 mph - N/A   Clear
10:53 AM 99.0 °F 44.1 °F 15% 29.85 in 10.0 mi Calm Calm - N/A   Clear
11:53 AM 102.9 °F 37.0 °F 10% 29.83 in 10.0 mi WNW 6.9 mph - N/A   Clear
12:53 PM 106.0 °F 30.9 °F 7% 29.81 in 10.0 mi WSW 9.2 mph - N/A   Clear
1:53 PM 107.1 °F 33.1 °F 8% 29.79 in 10.0 mi WSW 18.4 mph 23.0 mph N/A   Clear
2:53 PM 106.0 °F 33.1 °F 8% 29.79 in 10.0 mi WSW 20.7 mph 25.3 mph N/A   Partly Cloudy
3:53 PM 104.0 °F 34.0 °F 9% 29.79 in 10.0 mi West 18.4 mph 23.0 mph N/A   Partly Cloudy
4:53 PM 100.9 °F 35.1 °F 10% 29.79 in 10.0 mi WSW 19.6 mph 28.8 mph N/A   Clear
5:53 PM 95.0 °F 39.0 °F 14% 29.80 in 10.0 mi West 11.5 mph - N/A   Clear
6:53 PM 89.1 °F 37.9 °F 16% 29.81 in 10.0 mi West 6.9 mph - N/A   Clear
7:53 PM 89.1 °F 42.1 °F 19% 29.83 in 10.0 mi WSW 15.0 mph - N/A   Clear
8:53 PM 87.1 °F 45.0 °F 23% 29.85 in 10.0 mi West 18.4 mph - N/A   Clear
9:53 PM 84.0 °F 46.9 °F 27% 29.87 in 10.0 mi West 11.5 mph - N/A   Clear
10:53 PM 84.0 °F 46.0 °F 26% 29.88 in 10.0 mi West 12.7 mph - N/A   Clear
11:53 PM 81.0 °F 48.0 °F 31% 29.88 in 10.0 mi West 11.5 mph - N/A   Clear